Tracking 27122 objects as of 26-Mar-2023
HD Live streaming from Space Station
objects crossing your sky now

STARLINK-1909

Track STARLINK-1909 now!
10-day predictions
STARLINK-1909 is classified as:


NORAD ID: 47550
Int'l Code: 2021-009C
Perigee: 553.9 km
Apogee: 555.5 km
Inclination: 53.1 °
Period: 95.6 minutes
Semi major axis: 6925 km
RCS: Unknown
Launch date: February 4, 2021
Source: United States (US)
Launch site: AIR FORCE EASTERN TEST RANGE (AFETR)
Your satellite tracking list
Your tracking list is empty




NASA's NSSDC Master Catalog

Two Line Element Set (TLE):
1 47550U 21009C   23084.56307795  .00044891  00000-0  30230-2 0  9998
2 47550  53.0526 170.4967 0001180  84.9865 275.1258 15.06283131118277
Source of the keplerian elements: AFSPC